Regional Weather Roundup
Issued by NWS

Home | Current Version | Previous Version | Graphics & Text | Print | Product List | Glossary On
Versions: 1 2 3 4 5 6 7 8 9 10 11 12 13 14 15 16 17 18 19 20 21 22 23 24 25 26 27 28 29 30 31 32 33 34 35 36 37 38 39 40 41 42 43 44 45 46 47 48 49 50
000
ASUS43 KIND 270709
RWRIN

WEATHER ROUNDUP FOR INDIANA
NATIONAL WEATHER SERVICE INDIANAPOLIS IN
300 AM EDT SAT MAY 27 2017

NOTE: "FAIR" INDICATES FEW OR NO CLOUDS BELOW 12,000 FEET WITH NO
SIGNIFICANT WEATHER AND/OR OBSTRUCTIONS TO VISIBILITY.

* - STATION DOES NOT REPORT WEATHER SUCH AS PRECIPITATION OR FOG.

+ - STATION NOT QUALITY CONTROLLED BY THE NATIONAL WEATHER SERVICE.
    USE DATA WITH CAUTION...ESPECIALLY DEWPOINT AND RELATIVE
    HUMIDITY OBSERVATIONS.

INZ001>003-010>013-019-020-270800-
NORTHWEST INDIANA

CITY           SKY/WX    TMP DP  RH WIND       PRES   REMARKS
GARY /AIRPORT/ HVY RAIN  56  55  95 N6        29.86R
KNOX *+        CLOUDY    59  55  88 NE5       29.83R
LA PORTE +     CLOUDY    60  58  96 E3        29.85S
MICHIGAN CITY+ CLOUDY    57  57 100 N3        29.85S
MONTICELLO +   CLOUDY    64  62  95 CALM      29.81R FOG
RENSSELAER +   MOCLDY    63  59  88 E5        29.83S
VALPARAISO     MOCLDY    61  59  93 NE6       29.84S

$$

LMZ046-743>745-270800-
SOUTHERN LAKE MICHIGAN

STATION/POSITION TIME  TEMP    WIND        PRES    WAVE
                       AIR SEA DIR/SP/G            HT
                 (UTC) (F)     (DEG/KT/KT) (MB)    (FT)
BURNS HARBOR     0640   55      50/  6/  8 1011.2S
MICHIGAN CITY    0640   55      20/ 11/ 12   N/A
5NW MICH CITY    0700   54 53   40/ 10/ 12   N/A     1

$$

INZ004-005-014>016-021>024-270800-
NORTH CENTRAL INDIANA

CITY           SKY/WX    TMP DP  RH WIND       PRES   REMARKS
GOSHEN         CLOUDY    58  54  86 E5        29.84S
LOGANSPORT +   CLOUDY    63  63 100 CALM      29.82S
PERU/GRISSOM   CLOUDY    65  65 100 E3        29.80S
ROCHESTER +    CLOUDY    63  63 100 E3        29.83R
SOUTH BEND     CLOUDY    57  56  96 E8        29.85S
WARSAW +       CLOUDY    59  59 100 E5        29.84R

$$

INZ006>009-017-018-025>027-270800-
NORTHEAST INDIANA

CITY           SKY/WX    TMP DP  RH WIND       PRES   REMARKS
ANGOLA *+      CLOUDY    57  57 100 E6        29.84F
AUBURN +       CLOUDY    59  55  88 NE5       29.85S
FORT WAYNE     LGT RAIN  61  59  93 E9        29.83S
HUNTINGTON +   CLOUDY   N/A N/A N/A E3        29.82S
KENDALLVILLE + CLOUDY    58  58 100 E6        29.85S

$$

INZ028-029-035-036-043>045-051>053-270800-
WEST CENTRAL INDIANA

CITY           SKY/WX    TMP DP  RH WIND       PRES   REMARKS
CRAWFORDSVL +  CLOUDY   -36 -36 100 SW7       29.82F WCI -56
GREENCASTLE +  CLOUDY    70  64  83 CALM      29.83S
LAFAYETTE      MOCLDY    65  65 100 W5        29.80S
TERRE HAUTE    CLOUDY    70  65  84 SW8       29.82S

$$

INZ030>032-037>040-046>048-054>057-064-065-270800-
CENTRAL INDIANA

CITY           SKY/WX    TMP DP  RH WIND       PRES   REMARKS
CP ATTERBURY + CLOUDY    70  63  78 SW3       29.83S
FISHERS *+     CLOUDY    64  64 100 SW3       29.82F
FRANKFORT +    CLOUDY    69  66  89 W9        29.83S
GREENWOOD *+   MOCLDY    70  64  79 W5        29.83S
INDIANAPOLIS   MOCLDY    67  64  90 W5        29.81F
-EAGLE CREEK   MOCLDY    67  63  87 SW3       29.81S
KOKOMO +       CLOUDY    65  64  97 SE3       29.82S
MARION +       CLOUDY    64  63  94 CALM      29.82S FOG
MT COMFORT *+  CLOUDY    66  64  94 SW3       29.83S
SHELBYVILLE    CLOUDY    72  63  73 W3        29.81S
ZIONSVILLE +   CLOUDY    64  63  96 W5        29.83S

$$

INZ033-034-041-042-049-050-058-059-270800-
EAST CENTRAL INDIANA

CITY           SKY/WX    TMP DP  RH WIND       PRES   REMARKS
MUNCIE         MOCLDY    66  63  90 CALM      29.82S
RICHMOND +     CLOUDY    64  63  94 SW10      29.84S

$$

INZ060-061-067>069-081>083-085>088-270800-
SOUTHWEST INDIANA

CITY           SKY/WX    TMP DP  RH WIND       PRES   REMARKS
EVANSVILLE     PTCLDY    71  67  87 SW8       29.85F
HUNTINGBURG *+ MOCLDY    69  66  90 SW6       29.85F
WASHINGTON +   PTCLDY    69  67  93 SW5       29.83F

$$

INZ062-063-066-070>080-084-089>092-270800-
SOUTH CENTRAL AND SOUTHEAST INDIANA

CITY           SKY/WX    TMP DP  RH WIND       PRES   REMARKS
BEDFORD +      CLOUDY    72  64  78 SW8       29.84
BLOOMINGTON    CLOUDY    71  64  78 SW8       29.83S
MADISON *+     CLOUDY    72  63  73 SW8       29.85F
NORTH VERNON + CLOUDY    70  63  78 SW5       29.84S
SEYMOUR +      CLOUDY    73  64  73 W9        29.83

$$




USA.gov is the U.S. government's official web portal to all federal, state and local government web resources and services.